TimeCDT,TemperatureF,Dew PointF,Humidity,Sea Level PressureIn,VisibilityMPH,Wind Direction,Wind SpeedMPH,Gust SpeedMPH,PrecipitationIn,Events,Conditions,WindDirDegrees,DateUTC
12:53 AM,75.0,55.0,50,29.76,10.0,SSE,10.4,-,N/A,,Clear,160,2013-04-11 05:53:00
1:53 AM,75.0,55.0,50,29.76,10.0,South,10.4,19.6,N/A,,Clear,190,2013-04-11 06:53:00
2:53 AM,73.9,55.0,52,29.75,10.0,South,12.7,-,N/A,,Clear,180,2013-04-11 07:53:00
3:53 AM,73.9,55.9,53,29.75,10.0,South,12.7,-,N/A,,Scattered Clouds,190,2013-04-11 08:53:00
4:53 AM,73.0,57.0,57,29.74,10.0,South,13.8,-,N/A,,Overcast,180,2013-04-11 09:53:00
5:53 AM,72.0,59.0,64,29.77,10.0,SW,13.8,21.9,0.00,Rain,Light Rain,220,2013-04-11 10:53:00
6:53 AM,66.0,62.1,87,29.80,10.0,South,6.9,-,0.06,Rain,Light Rain,190,2013-04-11 11:53:00
7:53 AM,64.9,61.0,87,29.81,5.0,Calm,Calm,-,0.11,Rain,Light Rain,0,2013-04-11 12:53:00
8:28 AM,64.4,62.6,94,29.82,1.8,South,5.8,-,0.09,Rain,Heavy Rain,190,2013-04-11 13:28:00
8:38 AM,64.4,62.6,94,29.82,3.0,South,6.9,-,0.11,Rain,Light Rain,170,2013-04-11 13:38:00
8:53 AM,64.0,61.0,90,29.79,4.0,South,8.1,-,0.13,Rain,Rain,180,2013-04-11 13:53:00
10:53 AM,64.0,60.1,87,29.78,10.0,Variable,3.5,-,0.00,,Overcast,0,2013-04-11 15:53:00
12:13 PM,64.4,60.8,88,29.75,1.8,West,6.9,-,0.06,Rain,Rain,280,2013-04-11 17:13:00
12:19 PM,62.6,59.0,88,29.75,0.8,West,10.4,-,0.18,Rain,Heavy Rain,260,2013-04-11 17:19:00
12:31 PM,62.6,59.0,88,29.75,1.5,SW,5.8,-,0.25,Rain,Rain,220,2013-04-11 17:31:00
12:41 PM,62.6,60.8,94,29.74,2.0,SSE,4.6,-,0.29,Rain,Rain,160,2013-04-11 17:41:00
12:53 PM,62.1,59.0,90,29.72,3.0,SE,8.1,-,0.33,Rain,Rain,140,2013-04-11 17:53:00
1:30 PM,62.6,59.0,88,29.72,1.2,Calm,Calm,-,0.11,Rain,Heavy Rain,0,2013-04-11 18:30:00
1:41 PM,62.6,57.2,82,29.70,2.0,Calm,Calm,-,0.15,Rain,Rain,0,2013-04-11 18:41:00
1:49 PM,60.8,57.2,88,29.71,3.0,Calm,Calm,-,0.18,Rain,Rain,0,2013-04-11 18:49:00
1:53 PM,61.0,57.9,90,29.70,2.0,Calm,Calm,-,0.22,Rain,Rain,0,2013-04-11 18:53:00
2:00 PM,60.8,57.2,88,29.70,1.5,Calm,Calm,-,0.04,Rain,Rain,0,2013-04-11 19:00:00
2:19 PM,60.8,57.2,88,29.71,0.8,Calm,Calm,-,0.18,Rain,Heavy Rain,0,2013-04-11 19:19:00
2:28 PM,60.8,57.2,88,29.68,1.5,ENE,4.6,-,0.22,Rain,Rain,70,2013-04-11 19:28:00
2:37 PM,60.8,57.2,88,29.70,3.0,ESE,3.5,-,0.24,Rain,Rain,120,2013-04-11 19:37:00
2:50 PM,60.8,57.2,88,29.69,1.8,Calm,Calm,-,0.29,Rain,Heavy Rain,0,2013-04-11 19:50:00
2:53 PM,60.1,57.9,93,29.68,1.5,Calm,Calm,-,0.30,Rain,Rain,0,2013-04-11 19:53:00
2:58 PM,60.8,57.2,88,29.68,2.0,Calm,Calm,-,0.02,Rain-Thunderstorm,Rain,0,2013-04-11 19:58:00
3:02 PM,60.8,57.2,88,29.69,3.0,Calm,Calm,-,0.02,Rain-Thunderstorm,Rain,0,2013-04-11 20:02:00
3:12 PM,60.8,57.2,88,29.69,2.5,Calm,Calm,-,0.06,Rain,Rain,0,2013-04-11 20:12:00
3:29 PM,60.8,57.2,88,29.69,2.0,Calm,Calm,-,0.11,Rain-Thunderstorm,Rain,0,2013-04-11 20:29:00
3:44 PM,60.8,57.2,88,29.68,2.0,Calm,Calm,-,0.16,Rain,Rain,0,2013-04-11 20:44:00
3:53 PM,60.1,57.9,93,29.68,2.5,Calm,Calm,-,0.19,Rain,Rain,0,2013-04-11 20:53:00
4:17 PM,60.8,57.2,88,29.67,3.0,East,5.8,-,0.10,Rain,Rain,80,2013-04-11 21:17:00
4:30 PM,60.8,57.2,88,29.68,5.0,East,3.5,-,0.12,Rain,Light Rain,90,2013-04-11 21:30:00
4:53 PM,60.1,57.9,93,29.68,3.0,Calm,Calm,-,0.18,Rain,Light Rain,0,2013-04-11 21:53:00
5:04 PM,60.8,57.2,88,29.69,4.0,Calm,Calm,-,0.02,Rain,Rain,0,2013-04-11 22:04:00
5:13 PM,60.8,57.2,88,29.68,2.5,Calm,Calm,-,0.05,Rain,Rain,0,2013-04-11 22:13:00
5:17 PM,60.8,57.2,88,29.68,3.0,Calm,Calm,-,0.06,Rain,Rain,0,2013-04-11 22:17:00
5:25 PM,60.8,57.2,88,29.67,2.0,Calm,Calm,-,0.10,Rain,Rain,0,2013-04-11 22:25:00
5:33 PM,60.8,57.2,88,29.66,1.8,ESE,5.8,-,0.14,Rain,Heavy Rain,110,2013-04-11 22:33:00
5:40 PM,60.8,57.2,88,29.65,2.5,ESE,9.2,-,0.16,Rain,Rain,110,2013-04-11 22:40:00
5:48 PM,60.8,57.2,88,29.65,2.5,SE,8.1,-,0.19,Rain-Thunderstorm,Rain,130,2013-04-11 22:48:00
5:53 PM,60.1,57.9,93,29.63,3.0,ESE,10.4,-,0.20,Rain-Thunderstorm,Rain,120,2013-04-11 22:53:00
6:03 PM,60.8,57.2,88,29.63,4.0,ESE,10.4,-,0.02,Rain,Rain,110,2013-04-11 23:03:00
6:35 PM,60.8,57.2,88,29.59,10.0,ESE,12.7,-,0.03,Rain,Light Rain,110,2013-04-11 23:35:00
6:53 PM,60.1,57.0,90,29.57,10.0,ESE,11.5,-,0.03,,Scattered Clouds,120,2013-04-11 23:53:00
7:53 PM,60.1,57.0,90,29.59,10.0,Calm,Calm,-,N/A,,Overcast,0,2013-04-12 00:53:00
8:23 PM,60.8,57.2,88,29.61,10.0,Calm,Calm,-,N/A,,Overcast,0,2013-04-12 01:23:00
8:53 PM,60.1,57.9,93,29.62,4.0,WNW,4.6,-,0.01,Rain,Light Rain,290,2013-04-12 01:53:00
9:02 PM,60.8,57.2,88,29.63,2.5,WNW,3.5,-,0.01,Rain,Light Rain,290,2013-04-12 02:02:00
9:09 PM,60.8,57.2,88,29.63,2.5,West,3.5,-,0.01,Rain,Light Rain,270,2013-04-12 02:09:00
9:14 PM,60.8,57.2,88,29.63,2.5,West,3.5,-,0.02,Rain,Light Rain,270,2013-04-12 02:14:00
9:24 PM,60.8,57.2,88,29.62,2.5,Calm,Calm,-,0.03,Rain,Light Rain,0,2013-04-12 02:24:00
9:45 PM,59.0,57.2,94,29.64,1.2,NW,11.5,16.1,0.11,Rain,Heavy Rain,320,2013-04-12 02:45:00
9:48 PM,57.2,55.4,94,29.64,1.5,NW,8.1,16.1,0.12,Rain,Heavy Rain,310,2013-04-12 02:48:00
9:53 PM,57.0,55.0,93,29.64,2.0,WNW,8.1,16.1,0.12,Rain,Light Rain,300,2013-04-12 02:53:00
10:01 PM,57.2,55.4,94,29.65,3.0,WNW,11.5,-,0.02,Rain,Light Rain,290,2013-04-12 03:01:00
10:15 PM,55.4,53.6,94,29.64,2.5,WNW,11.5,23.0,0.04,Rain,Light Rain,300,2013-04-12 03:15:00
10:33 PM,55.4,51.8,88,29.66,4.0,WNW,11.5,-,0.06,Rain,Light Rain,290,2013-04-12 03:33:00
10:53 PM,54.0,52.0,93,29.64,6.0,West,9.2,-,0.06,,Overcast,280,2013-04-12 03:53:00
11:17 PM,53.6,51.8,94,29.66,8.0,West,10.4,-,0.01,,Overcast,280,2013-04-12 04:17:00
11:53 PM,53.1,51.1,93,29.69,5.0,West,15.0,-,0.04,Rain,Light Rain,280,2013-04-12 04:53:00